• In Belarus
  • List of Countries
  • For 7 days
  • Water Temperature
  • Weather Map
  • Weather Widgets
  • user-avatar
    Login

    Hourly Weather Córdoba

    Today, 21 February, Friday

    Time Temperature Precipitation Wind Pressure Humidity
    00:00 +18°C° 0 mm 1 mps 729 mmHg 38%
    01:00 +16°C° 0 mm 1 mps 728 mmHg 38%
    02:00 +16°C° 0 mm 1 mps 728 mmHg 38%
    09:00 +21°C° 0 mm 2 mps 731 mmHg 27%
    10:00 +24°C° 0 mm 2 mps 731 mmHg 24%
    11:00 +25°C° 0 mm 2 mps 731 mmHg 21%
    12:00 +26°C° 0 mm 2 mps 730 mmHg 21%
    13:00 +27°C° 0 mm 3 mps 730 mmHg 20%
    14:00 +28°C° 0 mm 3 mps 730 mmHg 20%
    15:00 +28°C° 0 mm 3 mps 729 mmHg 20%
    16:00 +28°C° 0 mm 3 mps 729 mmHg 21%
    17:00 +28°C° 0 mm 3 mps 729 mmHg 21%
    18:00 +26°C° 0 mm 3 mps 729 mmHg 24%
    19:00 +23°C° 0 mm 2 mps 729 mmHg 27%
    20:00 +21°C° 0 mm 1 mps 729 mmHg 31%
    21:00 +20°C° 0 mm 1 mps 729 mmHg 33%
    22:00 +19°C° 0 mm 1 mps 729 mmHg 34%
    23:00 +18°C° 0 mm 1 mps 730 mmHg 36%

    Tomorrow, 22 February, Saturday

    Time Temperature Precipitation Wind Pressure Humidity
    00:00 +18°C° 0 mm 1 mps 730 mmHg 37%
    01:00 +16°C° 0 mm 1 mps 729 mmHg 38%
    02:00 +15°C° 0 mm 0 mps 729 mmHg 39%
    03:00 +14°C° 0 mm 0 mps 729 mmHg 40%
    04:00 +14°C° 0 mm 0 mps 729 mmHg 40%
    05:00 +14°C° 0 mm 0 mps 729 mmHg 41%
    06:00 +15°C° 0 mm 0 mps 729 mmHg 38%
    07:00 +19°C° 0 mm 1 mps 730 mmHg 34%
    08:00 +21°C° 0 mm 1 mps 730 mmHg 31%
    09:00 +23°C° 0 mm 1 mps 730 mmHg 28%
    10:00 +25°C° 0 mm 2 mps 730 mmHg 26%
    11:00 +26°C° 0 mm 3 mps 730 mmHg 23%
    12:00 +27°C° 0 mm 3 mps 730 mmHg 22%
    13:00 +28°C° 0 mm 3 mps 729 mmHg 22%
    14:00 +29°C° 0 mm 4 mps 728 mmHg 21%
    15:00 +29°C° 0 mm 4 mps 727 mmHg 22%
    16:00 +29°C° 0 mm 4 mps 727 mmHg 23%
    17:00 +29°C° 0 mm 4 mps 726 mmHg 24%
    18:00 +26°C° 0 mm 4 mps 726 mmHg 27%
    19:00 +24°C° 0 mm 3 mps 726 mmHg 31%
    20:00 +21°C° 0 mm 3 mps 726 mmHg 35%
    21:00 +20°C° 0 mm 3 mps 726 mmHg 35%
    22:00 +19°C° 0 mm 2 mps 726 mmHg 36%
    23:00 +19°C° 0 mm 2 mps 726 mmHg 36%

    Day after tomorrow, 23 February, Sunday

    Time Temperature Precipitation Wind Pressure Humidity
    00:00 +18°C° 0 mm 2 mps 726 mmHg 37%
    01:00 +18°C° 0 mm 2 mps 726 mmHg 38%
    02:00 +18°C° 0 mm 1 mps 725 mmHg 40%
    03:00 +17°C° 0 mm 2 mps 725 mmHg 40%
    04:00 +17°C° 0 mm 2 mps 725 mmHg 40%
    05:00 +17°C° 0 mm 2 mps 725 mmHg 40%
    06:00 +19°C° 0 mm 2 mps 725 mmHg 38%
    07:00 +20°C° 0 mm 3 mps 726 mmHg 35%
    08:00 +22°C° 0 mm 3 mps 726 mmHg 32%
    09:00 +25°C° 0 mm 4 mps 726 mmHg 29%
    10:00 +27°C° 0 mm 5 mps 726 mmHg 26%
    11:00 +29°C° 0 mm 5 mps 726 mmHg 23%
    12:00 +30°C° 0 mm 6 mps 725 mmHg 22%
    13:00 +32°C° 0 mm 6 mps 724 mmHg 22%
    14:00 +33°C° 0 mm 6 mps 724 mmHg 21%
    15:00 +32°C° 0 mm 6 mps 723 mmHg 22%
    16:00 +32°C° 0 mm 6 mps 722 mmHg 22%
    17:00 +32°C° 0 mm 6 mps 722 mmHg 23%
    18:00 +28°C° 0 mm 5 mps 721 mmHg 28%
    19:00 +26°C° 0 mm 4 mps 721 mmHg 32%
    20:00 +22°C° 0 mm 3 mps 721 mmHg 37%
    21:00 +22°C° 0 mm 3 mps 721 mmHg 38%
    22:00 +21°C° 0 mm 3 mps 721 mmHg 40%
    23:00 +20°C° 0 mm 2 mps 722 mmHg 41%

    24 February, Monday

    Time Temperature Precipitation Wind Pressure Humidity
    00:00 +20°C° 0 mm 2 mps 721 mmHg 42%
    01:00 +20°C° 0 mm 2 mps 721 mmHg 42%
    02:00 +19°C° 0 mm 2 mps 720 mmHg 42%
    03:00 +19°C° 0 mm 2 mps 720 mmHg 43%
    04:00 +19°C° 0 mm 2 mps 720 mmHg 44%
    05:00 +18°C° 0 mm 2 mps 719 mmHg 46%
    06:00 +20°C° 0 mm 2 mps 719 mmHg 42%
    07:00 +23°C° 0 mm 2 mps 720 mmHg 39%
    08:00 +25°C° 0 mm 3 mps 720 mmHg 36%
    09:00 +28°C° 0 mm 3 mps 720 mmHg 33%
    10:00 +30°C° 0 mm 4 mps 720 mmHg 30%
    11:00 +33°C° 0 mm 5 mps 720 mmHg 26%
    12:00 +35°C° 0 mm 5 mps 719 mmHg 25%
    13:00 +36°C° 0 mm 5 mps 719 mmHg 23%
    14:00 +37°C° 0 mm 5 mps 718 mmHg 21%
    15:00 +37°C° 0 mm 5 mps 718 mmHg 22%
    16:00 +36°C° 0 mm 5 mps 717 mmHg 23%
    17:00 +36°C° 0 mm 5 mps 716 mmHg 23%
    18:00 +33°C° 0 mm 4 mps 717 mmHg 28%
    19:00 +30°C° 0 mm 4 mps 717 mmHg 33%
    20:00 +27°C° 0 mm 3 mps 717 mmHg 39%
    21:00 +26°C° 0 mm 4 mps 718 mmHg 42%
    22:00 +25°C° 0 mm 4 mps 719 mmHg 45%
    23:00 +23°C° 0 mm 4 mps 720 mmHg 48%

    25 February, Tuesday

    Time Temperature Precipitation Wind Pressure Humidity
    00:00 +22°C° 0 mm 4 mps 720 mmHg 48%
    01:00 +21°C° 0 mm 5 mps 720 mmHg 48%
    02:00 +20°C° 0 mm 5 mps 720 mmHg 49%
    03:00 +20°C° 0.2 mm 4 mps 721 mmHg 55%
    04:00 +19°C° 0.2 mm 3 mps 721 mmHg 61%
    05:00 +18°C° 0.2 mm 2 mps 721 mmHg 67%
    06:00 +19°C° 0.4 mm 2 mps 722 mmHg 66%
    07:00 +21°C° 0.4 mm 1 mps 722 mmHg 65%
    08:00 +23°C° 0.4 mm 1 mps 723 mmHg 63%
    09:00 +25°C° 0.1 mm 1 mps 723 mmHg 54%
    10:00 +27°C° 0.1 mm 1 mps 723 mmHg 45%
    11:00 +30°C° 0.1 mm 1 mps 723 mmHg 36%
    12:00 +31°C° 0.1 mm 2 mps 723 mmHg 33%
    13:00 +32°C° 0.1 mm 2 mps 722 mmHg 30%
    14:00 +35°C° 0.1 mm 2 mps 722 mmHg 27%
    15:00 +34°C° 0.1 mm 2 mps 722 mmHg 27%
    16:00 +34°C° 0.1 mm 2 mps 721 mmHg 26%
    17:00 +34°C° 0.1 mm 2 mps 721 mmHg 25%
    18:00 +31°C° 0.1 mm 2 mps 721 mmHg 31%
    19:00 +28°C° 0.1 mm 1 mps 721 mmHg 37%
    20:00 +25°C° 0.1 mm 1 mps 722 mmHg 43%
    21:00 +25°C° 0 mm 1 mps 722 mmHg 47%
    22:00 +24°C° 0 mm 1 mps 722 mmHg 51%
    23:00 +23°C° 0 mm 2 mps 723 mmHg 54%

    26 February, Wednesday

    Time Temperature Precipitation Wind Pressure Humidity
    00:00 +23°C° 0 mm 2 mps 723 mmHg 54%
    01:00 +21°C° 0 mm 2 mps 722 mmHg 54%
    02:00 +21°C° 0 mm 2 mps 722 mmHg 54%
    03:00 +21°C° 0 mm 2 mps 722 mmHg 54%
    04:00 +21°C° 0 mm 2 mps 723 mmHg 54%
    05:00 +20°C° 0 mm 2 mps 723 mmHg 55%
    06:00 +23°C° 0 mm 2 mps 723 mmHg 48%
    07:00 +24°C° 0 mm 2 mps 724 mmHg 42%
    08:00 +26°C° 0 mm 3 mps 724 mmHg 35%
    09:00 +28°C° 0 mm 2 mps 724 mmHg 29%
    10:00 +31°C° 0 mm 2 mps 724 mmHg 24%
    11:00 +33°C° 0 mm 1 mps 724 mmHg 18%
    12:00 +35°C° 0 mm 2 mps 724 mmHg 16%
    13:00 +37°C° 0 mm 2 mps 724 mmHg 14%
    14:00 +38°C° 0 mm 2 mps 723 mmHg 12%
    15:00 +37°C° 0 mm 2 mps 723 mmHg 12%
    16:00 +37°C° 0 mm 2 mps 722 mmHg 12%
    17:00 +37°C° 0 mm 2 mps 721 mmHg 12%
    18:00 +34°C° 0 mm 2 mps 721 mmHg 15%
    19:00 +30°C° 0 mm 2 mps 721 mmHg 17%
    20:00 +27°C° 0 mm 2 mps 721 mmHg 20%
    21:00 +26°C° 0 mm 2 mps 722 mmHg 21%
    22:00 +25°C° 0 mm 2 mps 722 mmHg 23%
    23:00 +24°C° 0 mm 2 mps 722 mmHg 25%
    Show more